GFSFLT2_925_spd_363.txt.gz
Wind_Speed
40 36 30 21 20 17 13 7 2 6 8 11 13 12 11 9 11 21 23 21 18 18 21 24 24 23 17 16 15 16 17 17
41 39 35 28 24 23 16 17 13 2 9 11 13 13 13 12 14 19 21 22 20 17 21 22 21 20 15 12 14 18 16 16
43 41 38 33 28 26 22 21 17 14 3 8 13 14 14 15 19 20 23 21 19 18 16 22 21 19 13 14 16 19 16 15
36 38 37 40 36 29 25 24 20 17 14 6 11 17 17 20 20 23 25 21 19 20 22 18 23 20 14 13 15 16 14 15
32 35 35 38 37 34 29 26 23 20 18 16 5 16 20 22 22 24 23 22 20 20 23 26 23 21 17 14 17 16 15 16
33 33 35 34 36 35 33 28 26 20 23 18 13 5 18 21 24 27 27 25 23 23 24 24 23 20 18 16 18 18 16 17
32 35 36 32 35 37 34 31 26 22 20 19 19 10 7 24 22 26 28 27 24 23 22 24 23 20 17 18 16 18 20 20
29 32 34 33 33 34 33 30 27 23 22 20 20 14 6 13 26 29 29 29 26 24 21 24 22 21 18 18 17 20 21 20
30 30 32 33 30 31 32 29 27 27 25 23 20 16 13 6 20 29 30 28 26 25 21 22 21 19 18 19 18 22 21 21
29 29 30 30 30 27 29 30 27 25 26 25 23 18 16 8 6 24 28 30 30 28 26 26 25 23 19 20 21 22 22 23
30 30 29 29 29 28 24 28 29 27 28 27 26 22 19 14 3 14 23 25 31 29 27 30 27 23 19 20 21 23 25 24
28 29 27 29 30 29 27 24 26 26 30 27 26 25 21 19 9 3 14 23 28 26 21 29 25 20 19 22 23 25 26 26
27 30 28 28 33 31 29 24 26 26 29 28 27 25 24 21 16 6 7 16 21 23 21 24 25 17 19 15 18 23 25 26
23 26 26 24 28 30 26 23 22 21 23 26 28 25 24 24 20 15 8 7 17 22 20 20 19 25 9 16 4 4 15 21
18 22 22 20 25 28 27 24 23 21 27 29 30 28 25 23 23 17 13 8 2 18 22 23 17 25 23 5 4 3 12 14
14 17 19 19 21 25 26 24 20 23 22 25 28 29 27 24 25 21 14 12 8 7 22 23 25 18 19 27 8 9 3 3
10 13 17 16 16 21 24 25 24 25 23 23 24 26 29 25 25 23 19 14 12 4 9 22 24 26 23 18 18 11 9 4
10 11 14 14 14 17 21 22 24 26 26 22 25 26 28 28 27 24 21 17 14 9 3 13 23 20 26 25 22 13 11 7
11 12 13 11 13 17 19 21 22 23 25 23 24 27 30 29 29 25 23 18 14 12 7 3 19 23 29 29 29 26 11 19
12 13 13 9 13 16 19 19 19 20 20 23 21 22 25 25 24 22 21 19 17 13 9 5 4 22 26 27 28 29 26 18

GFSFLT2_925_spd_366.txt.gz
Wind_Speed
41 39 33 29 28 26 18 11 8 14 12 8 11 13 12 8 6 12 20 19 24 25 24 25 25 23 21 20 19 18 17 15
41 40 39 32 29 25 21 18 12 14 10 13 12 11 11 8 8 15 20 21 22 25 24 24 25 23 20 19 17 16 15 14
38 39 38 36 31 29 25 23 17 16 17 15 8 9 10 14 16 19 19 20 20 26 25 24 23 20 17 17 18 17 14 14
40 40 36 37 34 34 28 24 22 18 18 19 12 6 13 13 14 20 21 21 22 26 23 22 24 19 16 18 18 18 12 13
36 39 35 36 35 32 31 27 24 23 20 21 17 9 10 14 15 19 22 23 22 26 24 23 19 18 15 19 18 17 14 14
35 38 37 33 32 33 30 29 26 24 23 22 21 14 8 7 15 20 25 23 20 19 22 25 19 18 17 18 19 17 16 15
32 34 36 35 30 31 33 30 26 23 24 22 22 17 13 9 8 16 28 28 22 21 27 26 26 25 21 18 19 17 17 17
28 30 33 33 32 28 25 29 24 23 23 24 23 20 16 12 10 15 20 27 27 21 26 29 31 26 22 20 18 17 19 19
28 27 29 32 32 30 26 28 27 25 24 24 24 22 19 14 11 9 23 26 32 24 22 27 27 24 22 21 19 18 20 20
27 25 26 30 31 30 28 26 27 25 26 26 25 24 21 16 10 11 15 27 26 28 20 23 27 27 24 22 20 19 22 22
26 26 23 28 30 29 29 26 27 25 25 27 27 25 23 18 12 10 10 21 25 25 29 25 28 29 25 22 21 21 24 24
22 25 23 24 29 31 29 27 26 27 25 26 26 26 25 21 15 9 6 8 20 22 25 30 32 33 27 22 21 21 23 25
19 23 24 23 29 31 30 28 27 25 27 26 26 25 26 23 19 13 6 9 6 13 23 22 25 35 29 17 14 18 23 26
16 19 23 20 24 26 26 25 25 21 24 25 26 26 26 22 22 17 13 11 4 13 15 10 11 32 16 15 3 4 13 21
12 16 18 18 20 24 27 25 26 28 28 26 28 28 25 21 21 20 15 10 8 3 17 18 14 25 25 8 3 3 8 13
9 12 15 16 16 22 24 24 21 24 26 26 24 25 25 22 21 20 17 12 9 6 5 26 22 20 23 16 7 10 3 3
9 11 13 14 14 19 22 22 22 23 23 25 25 21 27 24 24 22 20 14 9 7 8 8 29 23 21 21 16 14 12 4
10 11 12 12 13 17 21 22 22 23 24 26 26 26 26 27 24 21 21 18 13 10 9 3 17 25 29 25 20 12 9 6
10 11 12 11 12 16 21 21 21 21 22 24 25 26 27 27 25 22 22 20 14 11 7 6 3 20 30 31 24 26 19 16
11 11 12 10 12 17 20 20 20 19 20 21 22 21 21 22 22 21 21 21 17 15 9 6 3 5 20 25 26 29 20 23

GFSFLT2_925_spd_369.txt.gz
Wind_Speed
41 39 36 32 29 29 25 23 21 20 9 5 8 8 10 10 9 10 16 17 21 19 22 23 23 24 23 21 18 18 14 12
41 39 39 37 32 27 26 25 24 14 11 10 10 9 10 11 10 11 14 16 20 24 26 23 23 24 23 21 18 16 12 11
32 37 40 38 36 33 25 27 26 20 14 10 15 13 9 4 6 12 20 20 23 25 23 22 24 23 23 21 18 14 12 10
35 35 34 33 30 33 30 24 26 24 20 15 11 13 12 7 7 15 18 21 24 23 23 22 21 22 21 20 14 17 11 10
33 33 32 32 32 27 29 28 24 24 24 21 15 12 12 9 3 16 20 20 22 25 25 25 23 17 18 16 16 19 11 10
30 30 31 30 28 27 23 30 26 23 25 23 20 15 12 11 8 5 20 23 23 27 28 27 24 20 16 19 19 14 12 11
28 29 31 30 28 26 22 24 27 23 23 23 23 18 14 14 11 3 17 23 23 28 29 27 25 21 17 18 19 14 12 11
24 27 30 29 28 27 23 21 23 25 21 24 22 20 16 14 13 8 7 23 24 26 27 28 27 26 23 20 16 14 13 13
23 24 27 30 28 26 24 21 19 22 22 24 24 23 19 16 13 10 6 13 29 25 29 30 28 22 23 21 16 15 14 15
20 23 24 27 28 25 23 22 19 21 25 23 25 23 20 17 15 11 11 7 26 35 27 36 37 31 22 19 17 15 15 17
18 22 22 24 25 25 22 21 19 19 24 22 25 24 22 20 18 14 9 9 14 25 30 34 33 33 25 20 18 16 15 17
15 19 21 23 22 24 23 22 20 17 16 20 20 26 23 20 20 16 10 6 4 22 19 31 35 34 30 22 15 14 15 18
14 16 20 19 22 24 25 25 22 20 20 18 25 25 26 21 21 19 13 8 6 4 15 29 26 29 26 19 10 11 13 15
13 14 16 16 18 20 20 22 20 18 21 19 19 23 24 22 22 22 16 13 4 3 7 18 19 37 20 19 4 4 9 17
12 14 15 14 15 17 20 21 21 20 22 23 21 20 24 25 22 21 19 14 8 6 3 12 13 30 29 16 5 4 12 12
13 14 14 13 15 16 19 21 22 22 21 22 22 21 23 22 23 21 20 16 11 8 5 4 18 16 28 22 13 14 7 5
12 13 13 13 13 14 17 20 20 20 20 21 21 20 19 20 21 21 20 17 14 11 6 6 18 22 21 19 15 12 10 5
11 10 12 12 11 13 16 18 19 21 21 20 21 20 18 17 20 19 18 17 16 13 5 1 10 22 24 24 19 9 10 9
9 9 11 11 9 13 17 17 17 17 18 19 20 20 19 20 19 20 20 17 17 14 9 2 7 11 27 25 26 24 16 15
9 9 10 9 9 13 16 16 15 15 16 18 17 17 17 19 16 17 19 16 18 17 11 7 3 2 29 25 21 17 20 22

GFSFLT2_925_spd_372.txt.gz
Wind_Speed
29 29 29 33 30 29 24 26 26 20 16 14 6 3 6 7 7 8 13 17 14 22 24 18 24 24 23 20 17 13 9 9
29 29 30 31 31 29 27 22 25 20 19 18 11 5 5 8 10 13 16 15 18 24 21 19 23 24 23 21 18 15 9 10
28 30 29 29 27 28 31 26 23 23 22 19 15 13 6 6 10 7 12 15 21 21 21 20 21 21 23 22 19 10 9 8
28 29 31 30 25 28 29 31 27 22 25 22 20 17 12 5 10 6 11 15 16 20 22 23 24 24 23 21 15 12 8 8
28 28 28 29 27 25 22 24 29 26 24 26 20 19 14 10 5 4 11 16 15 20 20 20 25 25 23 18 14 14 8 7
25 27 28 28 25 25 23 21 23 21 21 26 25 19 18 12 5 5 9 17 18 21 21 20 22 21 19 13 14 14 9 8
23 25 27 28 26 25 23 21 21 21 22 23 24 18 16 16 9 6 4 15 19 21 21 25 24 23 17 14 15 14 11 9
21 24 26 26 25 24 22 22 22 21 21 20 20 21 19 18 14 8 6 9 19 21 22 24 26 23 19 17 16 14 13 9
20 22 25 27 25 23 21 21 20 18 19 19 19 22 20 19 18 12 9 9 16 20 23 29 29 27 22 20 16 14 13 12
18 21 24 26 25 23 21 19 19 18 18 18 19 21 21 20 17 16 12 10 12 21 25 32 30 23 26 24 15 14 13 14
16 19 22 24 24 22 21 19 18 17 17 18 21 20 23 18 17 18 14 11 9 29 25 33 31 24 21 20 18 16 15 14
13 17 20 23 22 22 20 19 18 17 17 18 19 20 20 19 20 19 16 13 8 1 38 32 36 35 21 23 21 19 17 17
13 16 18 21 22 23 22 21 19 17 17 17 18 18 21 21 22 22 18 15 12 4 8 33 29 33 25 15 12 16 17 17
13 16 17 19 20 20 19 20 19 16 17 17 17 18 19 21 21 22 20 17 12 5 4 13 21 33 18 19 3 5 11 13
12 15 16 18 17 18 19 19 18 15 17 17 19 17 17 21 18 19 19 17 15 10 9 3 6 26 26 10 4 4 14 14
11 14 16 16 15 16 17 19 20 19 18 18 18 16 16 17 17 18 17 17 15 12 11 7 6 20 22 25 23 13 7 7
12 12 15 14 14 14 16 18 19 18 18 17 16 16 15 16 20 18 18 16 16 14 12 7 10 19 25 26 19 17 21 7
10 12 14 13 13 13 15 18 19 18 18 16 17 15 15 17 21 21 17 18 19 17 14 9 8 9 23 27 23 17 20 14
10 12 13 13 12 13 16 16 16 15 16 17 18 16 15 16 18 18 19 18 17 18 14 10 6 5 26 24 22 18 20 21
10 11 11 12 12 14 16 15 14 14 13 17 15 14 13 15 16 17 19 18 18 17 15 10 9 6 17 25 22 27 21 22

GFSFLT2_925_spd_375.txt.gz
Wind_Speed
22 25 25 27 29 28 29 29 25 27 27 21 14 11 8 3 3 5 9 15 15 14 16 19 18 19 20 18 15 12 4 17
25 26 27 26 24 29 27 28 28 26 25 25 21 13 9 9 9 7 7 15 18 16 20 20 19 22 20 18 15 11 5 16
24 27 28 28 25 26 29 26 34 25 26 26 18 18 14 11 8 12 6 10 14 15 21 18 19 22 22 19 17 9 9 16
24 25 26 27 25 25 23 25 31 28 24 25 21 18 19 13 10 6 4 5 12 17 18 18 20 22 21 19 16 11 11 15
23 24 25 27 25 24 23 22 23 27 24 24 24 16 17 16 13 8 1 4 9 16 18 18 18 24 22 19 14 10 12 13
21 23 24 25 24 24 23 22 22 21 25 25 25 24 17 18 15 12 2 1 11 14 18 20 19 26 27 20 13 13 17 15
19 21 23 25 23 24 22 21 21 21 20 22 24 27 23 19 17 13 9 6 12 16 19 21 19 26 25 21 12 13 13 16
17 20 21 24 23 23 22 20 20 19 19 20 20 24 26 25 20 17 12 6 11 19 18 17 16 21 18 14 13 12 11 14
16 18 21 23 23 23 21 20 20 18 17 17 19 20 24 23 22 18 15 13 13 20 21 18 16 21 20 18 13 11 9 13
15 16 20 24 24 22 21 19 19 17 16 15 17 19 22 24 21 18 17 14 12 11 27 22 19 19 24 20 19 15 14 14
14 15 18 21 26 22 21 19 18 17 16 15 17 17 21 20 20 21 18 16 12 10 18 8 17 20 24 24 22 18 14 12
14 16 18 19 23 22 21 19 18 17 15 15 16 16 17 17 18 21 19 18 14 10 9 16 23 27 17 25 26 22 13 15
16 15 16 20 23 23 21 19 20 17 15 15 15 15 16 18 17 20 20 19 16 13 11 18 24 26 19 9 15 21 19 16
12 12 13 19 19 19 19 17 19 17 13 15 13 14 14 16 16 18 19 18 16 13 13 12 23 35 21 7 2 10 16 21
10 10 13 15 16 16 19 18 16 16 16 15 15 14 12 14 15 16 18 18 16 16 14 16 7 27 34 15 2 5 12 13
8 11 12 13 14 15 15 18 17 18 17 15 16 13 9 11 16 16 17 19 17 16 15 15 9 2 31 33 21 7 7 6
6 10 11 13 11 13 15 17 18 18 16 15 14 12 9 14 16 16 18 18 19 19 17 16 11 12 7 26 18 17 16 4
9 10 12 12 12 12 14 16 17 17 16 15 22 21 15 14 16 16 16 19 20 19 18 17 15 12 11 21 23 17 18 15
12 9 12 11 11 11 13 15 15 15 15 12 19 20 14 17 15 15 16 19 20 21 18 18 17 13 12 12 26 25 19 25
10 11 10 11 10 11 13 12 13 13 14 12 13 13 15 13 12 14 14 16 19 20 18 18 18 13 11 5 25 23 26 24